GRUS-1C

导读 | 豆包AI

GRUS-1C是由日本发射的卫星,于2021年3月22日08:00发射升空。GRUS卫星系列是日本开展的对地观测项目,该系列卫星通常配备光学成像载荷,旨在获取高分辨率地球观测图像,可服务于灾害监测、地理测绘、资源勘察等多个领域,GRUS-1C进一步扩充了日本低轨观测卫星的组网能力。

基本信息
目录编号:
47933
目录名称:
GRUS-1C
国际标识:
2021-022B
轨道中心:
EARTH
卫星名称:
GRUS-1C
卫星全名:
--
卫星状态:
在轨 (已飞行1865 天)
发射日期:
2021-03-22 UTC
国别 :
日本 (JP)
星等 :
--
轨道信息
数据来源 国际轨道数据
星历时间: 2026-04-30T20:36:10+0800
6小时前
查看轨道信息
半长轴: 6948.497km
偏心率: 0.0014161
轨道倾角: 97.544°
近地点辐角 115.846°
升交点赤经 5.202°
平近点角 244.423°
近地点: 560.52km
远地点: 580.2km
周期: 96.072分钟
每日圈数: 14.988787
详细信息
使用方式:
暂无
2D轨道图
3D轨道图
轨道高度分析图
轨道倾角分析图
轨道综合分析图
查看轨道综合分析图